Regional Weather Roundup
Issued by NWS

Home | Current Version | Previous Version | Graphics & Text | Print | Product List | Glossary On
Versions: 1 2 3 4 5 6 7 8 9 10 11 12 13 14 15 16 17 18 19 20 21 22 23 24 25 26 27 28 29 30 31 32 33 34 35 36 37 38 39 40 41 42 43 44 45 46 47 48 49 50
997
ASUS43 KIND 050809
RWRIN

WEATHER ROUNDUP FOR INDIANA
NATIONAL WEATHER SERVICE INDIANAPOLIS IN
400 AM EDT THU MAY 05 2016

NOTE: "FAIR" INDICATES FEW OR NO CLOUDS BELOW 12,000 FEET WITH NO
SIGNIFICANT WEATHER AND/OR OBSTRUCTIONS TO VISIBILITY.

* - STATION DOES NOT REPORT WEATHER SUCH AS PRECIPITATION OR FOG.

+ - STATION NOT QUALITY CONTROLLED BY THE NATIONAL WEATHER SERVICE.
    USE DATA WITH CAUTION...ESPECIALLY DEWPOINT AND RELATIVE
    HUMIDITY OBSERVATIONS.

INZ001>003-010>013-019-020-050900-
NORTHWEST INDIANA

CITY           SKY/WX    TMP DP  RH WIND       PRES   REMARKS
GARY /AIRPORT/ LGT RAIN  42  42 100 N28       29.87S
KNOX *+        CLOUDY    41  37  87 N14G23    29.79S
LA PORTE +     CLOUDY    43  43 100 N16G25    29.81S
MICHIGAN CITY+ CLOUDY    41  41 100 N14G23    29.83S
MONTICELLO +   CLOUDY    40  37  87 N18G26    29.77S
RENSSELAER +   CLOUDY    41  39  93 N14G24    29.81F
VALPARAISO     CLOUDY    41  38  89 N18G28    29.82S

$$

LMZ046-743>745-050900-
SOUTHERN LAKE MICHIGAN

STATION/POSITION TIME  TEMP    WIND        PRES    WAVE
                       AIR SEA DIR/SP/G            HT
                 (UTC) (F)     (DEG/KT/KT) (MB)    (FT)
BURNS HARBOR     0736   43      20/ 26/ 27 1010.5S
MICHIGAN CITY    0700   42     350/ 32/ 36   N/A

$$

INZ004-005-014>016-021>024-050900-
NORTH CENTRAL INDIANA

CITY           SKY/WX    TMP DP  RH WIND       PRES   REMARKS
GOSHEN         LGT RAIN  44  42  93 N5        29.78R
LOGANSPORT +   CLOUDY    41  41 100 N14       29.77R
PERU/GRISSOM   MIX PCPN  43  43 100 N10       29.74R
ROCHESTER +    CLOUDY    45  45 100 NE10      29.77R
SOUTH BEND     CLOUDY    42  41  96 N14       29.80R
WARSAW +       CLOUDY    41  37  87 NE7       29.77R

$$

INZ006>009-017-018-025>027-050900-
NORTHEAST INDIANA

CITY           SKY/WX    TMP DP  RH WIND       PRES   REMARKS
ANGOLA *+      CLOUDY    41  39  93 N3        29.76R
AUBURN +       CLOUDY    41  37  87 N5        29.76S
FORT WAYNE     CLOUDY    41  38  89 N8        29.76R
HUNTINGTON +   CLOUDY    40  38  95 NE9       29.75S

$$

INZ028-029-035-036-043>045-051>053-050900-
WEST CENTRAL INDIANA

CITY           SKY/WX    TMP DP  RH WIND       PRES   REMARKS
CRAWFORDSVL +  CLOUDY    39  39 100 NW15      29.77F
GREENCASTLE +  LGT RAIN  41  39  93 N9        29.78R
LAFAYETTE      CLOUDY    41  38  89 N15G26    29.78S
TERRE HAUTE    CLOUDY    46  35  65 NW14G21   29.79F

$$

INZ030>032-037>040-046>048-054>057-064-065-050900-
CENTRAL INDIANA

CITY           SKY/WX    TMP DP  RH WIND       PRES   REMARKS
CP ATTERBURY + DRIZZLE   41  39  93 NW8       29.76S
FRANKFORT +    DRIZZLE   41  40  97 N14       29.77S
GREENWOOD *+   CLOUDY    41  39  93 NW7       29.75F
INDIANAPOLIS   LGT RAIN  41  38  89 NW13      29.74S
-EAGLE CREEK   LGT RAIN  42  40  92 NW13      29.74F
KOKOMO *+      CLOUDY    43  37  81 N9        29.74S
MARION +       CLOUDY    41  40  95 NE8       29.75R
SHELBYVILLE    CLOUDY    43  39  86 NW13      29.73F
ZIONSVILLE +   LGT RAIN  40  39  96 NW10      29.75S

$$

INZ033-034-041-042-049-050-058-059-050900-
EAST CENTRAL INDIANA

CITY           SKY/WX    TMP DP  RH WIND       PRES   REMARKS
MUNCIE         CLOUDY    42  39  89 N8        29.73S

$$

INZ060-061-067>069-081>083-085>088-050900-
SOUTHWEST INDIANA

CITY           SKY/WX    TMP DP  RH WIND       PRES   REMARKS
EVANSVILLE     MOCLDY    49  42  77 W6        29.80F
HUNTINGBURG *+ CLOUDY    48  43  81 W7        29.78F
WASHINGTON +   CLOUDY    49  43  81 N10       29.79S

$$

INZ062-063-066-070>080-084-089>092-050900-
SOUTH CENTRAL AND SOUTHEAST INDIANA

CITY           SKY/WX    TMP DP  RH WIND       PRES   REMARKS
BLOOMINGTON    CLOUDY    45  38  76 NW8       29.75F
MADISON *+     CLOUDY    43  39  87 NW7       29.76S
NORTH VERNON + RAIN     N/A N/A N/A CALM      29.74F

$$





USA.gov is the U.S. government's official web portal to all federal, state and local government web resources and services.